Location: Blankensee
(53.5126°N, 14.3055°E)
Time: 19:01:34
(UTC+00:00)

SL-4 R/B - Pass Details

Date: 08 August 2020
Orbit: 428 x 665 km, 51.6° (Epoch: 20 September)

Event Time Altitude Azimuth Distance (km) Brightness Sun altitude
Exits shadow 01:54:27 19° 201° (SSW) 1,103 3.0 -11.9°
Drops below altitude 10° 01:56:27 10° 166° (SSE) 1,521 3.9 -11.7°
Sets 01:58:55 0° 148° (SSE) 2,386 5.1 -11.4°
